{"data":{"norad_id":43799,"intl_designator":"2018-099AT","name":"HAWK-C","alt_names":[],"object_type":"PAYLOAD","status":"ACTIVE","operator":null,"country":"US","launch_date":"2018-12-03","launch_site_code":"AFWTR","launch_vehicle":null,"mission":null,"orbit_class":"UNKNOWN","rcs_meters":null,"size_class":null,"mass_kg":null,"dimensions":null,"purposes":["tech_demo"],"wikipedia_slug":null,"has_3d_model":false,"image_url":null,"decayed_at":null,"tle_current":{"epoch":"2026-05-25T03:22:45.037056Z","epoch_age_seconds":62923,"freshness":"FRESH","line1":"1 43799U 18099AT  26145.14079904  .00007845  00000+0  28548-3 0  9994","line2":"2 43799  97.3907 198.4803 0040756   9.6582 350.5432 15.27711845410394","mean_motion":15.27711845,"eccentricity":0.0040756,"inclination_deg":97.3907,"raan_deg":198.4803,"arg_perigee_deg":9.6582,"mean_anomaly_deg":350.5432,"bstar":0.00028548,"rev_number":41039,"period_min":94.25861327926,"perigee_km":454.69249191469,"apogee_km":510.61617422883,"semimajor_km":6860.7913330718,"source":"CELESTRAK","updated_at":"2026-05-25T13:38:24.898296Z"}}}